ARG7406 SAEZ-LEMD

Flight info

Callsign ARG7406
Flight time N/A
Altitude FL350
Route KUKE1A KUKEN UM654 DOTKU FLZ ENVAN UZ18 ARTIG UN866 TENPA N866 APASO N871 GDV N858 VASTO UN858 PESAS N858 PARKA Z165 SOTUK
Aircraft B789/H-SDE1E2E3FGHIJ2J3J4J5M1RWXY/LB1D1

Departure

Time N/A
Airport Ezeiza International Airport - Ministro Pistarini (SAEZ)

Arrival

Time 2026-05-04 13:25
Airport Adolfo Suárez Madrid–Barajas Airport (LEMD)
Time Latitude Longitude Altitude Speed Heading
2026-05-04 10:56 26.43570 -17.64948 39789 ft 535 kts 46°
2026-05-04 10:56 26.45969 -17.61782 39988 ft 535 kts 46°
2026-05-04 10:57 26.48369 -17.58613 40101 ft 536 kts 46°
2026-05-04 10:57 26.53189 -17.52241 40097 ft 537 kts 46°
2026-05-04 10:58 26.57982 -17.45894 40092 ft 535 kts 46°
2026-05-04 10:58 26.62764 -17.39555 40093 ft 535 kts 46°
2026-05-04 10:59 26.67545 -17.33206 40093 ft 534 kts 46°
2026-05-04 10:59 26.72321 -17.26856 40095 ft 535 kts 46°
2026-05-04 11:00 26.77095 -17.20499 40097 ft 534 kts 46°
2026-05-04 11:02 26.96097 -16.95107 40102 ft 532 kts 46°
2026-05-04 11:05 27.31580 -16.47294 40111 ft 532 kts 47°
2026-05-04 11:06 27.36301 -16.40895 40113 ft 533 kts 47°
2026-05-04 11:06 27.41026 -16.34478 40109 ft 534 kts 47°
2026-05-04 11:10 27.74034 -15.89391 40119 ft 534 kts 47°
2026-05-04 11:12 27.92837 -15.63495 40115 ft 534 kts 47°
2026-05-04 11:12 27.97531 -15.57007 40114 ft 534 kts 47°
2026-05-04 11:13 28.02221 -15.50513 40109 ft 534 kts 47°
2026-05-04 11:13 28.06962 -15.44081 40124 ft 530 kts 39°
2026-05-04 11:14 28.09746 -15.41407 40127 ft 523 kts 28°
2026-05-04 11:14 28.12774 -15.39141 40112 ft 523 kts 28°
2026-05-04 11:16 28.37079 -15.21050 40131 ft 524 kts 28°
2026-05-04 11:16 28.43164 -15.16503 40133 ft 525 kts 28°
2026-05-04 11:17 28.49243 -15.11956 40131 ft 524 kts 28°
2026-05-04 11:19 28.73486 -14.93757 40125 ft 521 kts 28°
2026-05-04 11:19 28.79537 -14.89198 40128 ft 523 kts 28°
2026-05-04 11:20 28.85583 -14.84636 40132 ft 521 kts 28°
2026-05-04 11:20 28.91614 -14.80081 40140 ft 523 kts 28°
2026-05-04 11:22 29.15874 -14.61687 40136 ft 525 kts 28°
2026-05-04 11:23 29.21946 -14.57065 40137 ft 525 kts 28°
2026-05-04 11:25 29.43161 -14.40871 40140 ft 525 kts 28°
2026-05-04 11:25 29.49221 -14.36228 40141 ft 525 kts 28°
2026-05-04 11:27 29.76512 -14.15242 40141 ft 526 kts 28°
2026-05-04 11:28 29.82571 -14.10563 40137 ft 526 kts 28°
2026-05-04 11:28 29.88634 -14.05875 40143 ft 526 kts 28°
2026-05-04 11:29 29.94699 -14.01178 40145 ft 526 kts 28°
2026-05-04 11:29 30.00761 -13.96476 40133 ft 527 kts 28°
2026-05-04 11:33 30.43442 -13.63172 40152 ft 534 kts 28°
2026-05-04 11:33 30.49574 -13.58356 40150 ft 533 kts 28°
2026-05-04 11:34 30.55695 -13.53515 40150 ft 533 kts 28°
2026-05-04 11:34 30.61794 -13.48644 40147 ft 533 kts 28°
2026-05-04 11:35 30.67901 -13.43788 40148 ft 534 kts 28°
2026-05-04 11:35 30.74013 -13.38901 40147 ft 534 kts 28°
2026-05-04 11:36 30.80112 -13.34029 40151 ft 533 kts 28°
2026-05-04 11:36 30.86213 -13.29141 40145 ft 533 kts 28°
2026-05-04 11:37 30.92305 -13.24257 40149 ft 533 kts 28°
2026-05-04 11:37 30.98418 -13.19410 40148 ft 532 kts 28°
2026-05-04 11:38 31.04526 -13.14552 40147 ft 533 kts 28°
2026-05-04 11:38 31.10633 -13.09685 40148 ft 532 kts 28°
2026-05-04 11:39 31.16737 -13.04819 40145 ft 533 kts 28°
2026-05-04 11:41 31.37982 -12.87807 40147 ft 530 kts 28°
2026-05-04 11:41 31.44046 -12.82935 40151 ft 530 kts 28°
2026-05-04 11:42 31.50110 -12.78054 40152 ft 530 kts 28°
2026-05-04 11:42 31.56172 -12.73167 40146 ft 530 kts 28°
2026-05-04 11:43 31.62228 -12.68278 40147 ft 529 kts 28°
2026-05-04 11:43 31.68269 -12.63393 40149 ft 528 kts 28°
2026-05-04 11:44 31.74311 -12.58498 40150 ft 528 kts 29°
2026-05-04 11:44 31.80342 -12.53605 40149 ft 528 kts 29°
2026-05-04 11:45 31.86370 -12.48707 40148 ft 527 kts 29°
2026-05-04 11:45 31.92390 -12.43807 40141 ft 527 kts 29°
2026-05-04 11:46 31.98402 -12.38906 40144 ft 527 kts 29°
2026-05-04 11:46 32.04419 -12.34018 40154 ft 527 kts 29°
2026-05-04 11:47 32.10437 -12.29113 40147 ft 527 kts 29°
2026-05-04 11:47 32.16448 -12.24208 40149 ft 526 kts 29°
2026-05-04 11:48 32.22451 -12.19302 40148 ft 526 kts 29°
2026-05-04 11:48 32.28437 -12.14400 40150 ft 524 kts 29°
2026-05-04 11:49 32.34423 -12.09493 40149 ft 525 kts 29°
2026-05-04 11:49 32.40407 -12.04577 40148 ft 525 kts 30°
2026-05-04 11:50 32.46400 -11.99648 40146 ft 526 kts 30°
2026-05-04 11:50 32.52391 -11.94710 40149 ft 526 kts 30°
2026-05-04 11:51 32.58382 -11.89765 40152 ft 526 kts 30°
2026-05-04 11:51 32.64371 -11.84813 40154 ft 525 kts 30°
2026-05-04 11:52 32.70347 -11.79864 40151 ft 524 kts 30°
2026-05-04 11:52 32.76316 -11.74912 40151 ft 524 kts 30°
2026-05-04 11:53 32.82285 -11.69953 40152 ft 525 kts 30°
2026-05-04 11:53 32.88253 -11.64985 40141 ft 524 kts 30°
2026-05-04 11:55 33.12116 -11.45039 40150 ft 525 kts 30°
2026-05-04 11:56 33.18082 -11.40031 40148 ft 525 kts 30°
2026-05-04 11:56 33.24032 -11.34987 40150 ft 526 kts 30°
2026-05-04 11:57 33.29983 -11.29938 40150 ft 526 kts 30°
2026-05-04 11:57 33.35941 -11.24876 40146 ft 526 kts 30°
2026-05-04 11:58 33.41890 -11.19810 40153 ft 526 kts 30°
2026-05-04 11:58 33.47838 -11.14739 40151 ft 526 kts 30°
2026-05-04 11:59 33.53777 -11.09665 40151 ft 525 kts 30°
2026-05-04 11:59 33.59712 -11.04587 40155 ft 525 kts 30°
2026-05-04 12:00 33.65649 -10.99498 40158 ft 526 kts 30°
2026-05-04 12:00 33.71595 -10.94392 40152 ft 526 kts 30°
2026-05-04 12:01 33.77531 -10.89286 40156 ft 526 kts 30°
2026-05-04 12:02 33.98351 -10.71306 40157 ft 529 kts 30°
2026-05-04 12:03 34.04317 -10.66133 40157 ft 529 kts 30°
2026-05-04 12:03 34.10277 -10.60957 40153 ft 529 kts 30°
2026-05-04 12:04 34.16235 -10.55774 40151 ft 530 kts 30°
2026-05-04 12:04 34.22205 -10.50570 40158 ft 530 kts 30°
2026-05-04 12:05 34.28169 -10.45362 40156 ft 530 kts 30°
2026-05-04 12:05 34.34131 -10.40147 40156 ft 530 kts 30°
2026-05-04 12:06 34.40094 -10.34922 40156 ft 531 kts 30°
2026-05-04 12:06 34.46070 -10.29676 40144 ft 532 kts 30°
2026-05-04 12:07 34.52044 -10.24421 40147 ft 531 kts 30°
2026-05-04 12:07 34.58009 -10.19166 40152 ft 531 kts 30°
2026-05-04 12:08 34.63973 -10.13904 40158 ft 531 kts 30°
2026-05-04 12:08 34.69946 -10.08670 40157 ft 531 kts 30°
2026-05-04 12:09 34.75915 -10.03409 40154 ft 531 kts 30°
2026-05-04 12:09 34.81874 -9.98157 40158 ft 530 kts 30°
2026-05-04 12:10 34.87830 -9.92895 40159 ft 530 kts 30°
2026-05-04 12:10 34.93779 -9.87629 40150 ft 530 kts 30°
2026-05-04 12:11 34.99731 -9.82353 40152 ft 530 kts 30°
2026-05-04 12:11 35.05684 -9.77063 40155 ft 530 kts 30°
2026-05-04 12:12 35.11636 -9.71768 40152 ft 531 kts 30°
2026-05-04 12:12 35.17591 -9.66458 40149 ft 531 kts 30°
2026-05-04 12:14 35.41369 -9.45158 40144 ft 530 kts 30°
2026-05-04 12:15 35.47308 -9.39815 40151 ft 531 kts 31°
2026-05-04 12:15 35.53253 -9.34454 40149 ft 531 kts 31°
2026-05-04 12:16 35.59192 -9.29090 40153 ft 531 kts 31°
2026-05-04 12:16 35.65131 -9.23714 40150 ft 532 kts 31°
2026-05-04 12:17 35.71076 -9.18324 40143 ft 532 kts 31°
2026-05-04 12:17 35.77020 -9.12924 40148 ft 532 kts 31°
2026-05-04 12:18 35.82959 -9.07517 40144 ft 532 kts 31°
2026-05-04 12:18 35.88892 -9.02109 40143 ft 531 kts 31°
2026-05-04 12:19 35.94821 -8.96690 40143 ft 532 kts 32°
2026-05-04 12:19 35.97594 -8.93642 40163 ft 539 kts 44°
2026-05-04 12:19 36.00066 -8.90159 40139 ft 541 kts 45°
2026-05-04 12:20 36.04958 -8.83114 40146 ft 541 kts 45°
2026-05-04 12:20 36.09864 -8.76081 40141 ft 541 kts 45°
2026-05-04 12:21 36.14758 -8.69028 40135 ft 542 kts 45°
2026-05-04 12:21 36.19655 -8.61965 40137 ft 542 kts 45°
2026-05-04 12:22 36.24550 -8.54888 40134 ft 542 kts 46°
2026-05-04 12:22 36.29436 -8.47808 40133 ft 541 kts 46°
2026-05-04 12:23 36.34314 -8.40726 40129 ft 541 kts 46°
2026-05-04 12:23 36.39191 -8.33630 40136 ft 541 kts 46°
2026-05-04 12:24 36.44059 -8.26533 40132 ft 541 kts 46°
2026-05-04 12:24 36.48923 -8.19426 40126 ft 541 kts 46°
2026-05-04 12:25 36.53782 -8.12311 40122 ft 541 kts 46°
2026-05-04 12:25 36.58630 -8.05191 40113 ft 540 kts 46°
2026-05-04 12:26 36.63473 -7.98068 40107 ft 540 kts 46°
2026-05-04 12:26 36.68276 -7.90985 40108 ft 539 kts 46°
2026-05-04 12:27 36.73102 -7.83857 40110 ft 539 kts 46°
2026-05-04 12:27 36.77919 -7.76723 40108 ft 539 kts 46°
2026-05-04 12:28 36.82734 -7.69578 40106 ft 539 kts 46°
2026-05-04 12:28 36.87548 -7.62420 40104 ft 539 kts 46°
2026-05-04 12:29 36.92358 -7.55251 40098 ft 540 kts 46°
2026-05-04 12:29 36.97173 -7.48059 40097 ft 540 kts 46°
2026-05-04 12:30 37.01985 -7.40858 40096 ft 540 kts 46°
2026-05-04 12:30 37.06800 -7.33666 40087 ft 540 kts 46°
2026-05-04 12:31 37.11637 -7.26509 40086 ft 540 kts 46°
2026-05-04 12:31 37.16453 -7.19311 40088 ft 540 kts 46°
2026-05-04 12:32 37.23674 -7.08531 40079 ft 539 kts 46°
2026-05-04 12:33 37.28477 -7.01332 40080 ft 539 kts 46°
2026-05-04 12:33 37.33279 -6.94124 40072 ft 540 kts 47°
2026-05-04 12:34 37.38080 -6.86896 40071 ft 539 kts 47°
2026-05-04 12:34 37.42869 -6.79675 40066 ft 538 kts 47°
2026-05-04 12:35 37.47649 -6.72448 40063 ft 538 kts 47°
2026-05-04 12:35 37.52413 -6.65232 40057 ft 536 kts 47°
2026-05-04 12:36 37.57166 -6.58018 40057 ft 537 kts 47°
2026-05-04 12:36 37.61924 -6.50778 40052 ft 537 kts 47°
2026-05-04 12:37 37.66677 -6.43530 40050 ft 537 kts 47°
2026-05-04 12:37 37.71420 -6.36281 40043 ft 537 kts 47°
2026-05-04 12:38 37.76161 -6.29020 40041 ft 537 kts 47°
2026-05-04 12:38 37.80897 -6.21750 40033 ft 537 kts 47°
2026-05-04 12:39 37.85630 -6.14468 40037 ft 537 kts 47°
2026-05-04 12:39 37.90356 -6.07181 40043 ft 536 kts 47°
2026-05-04 12:40 37.95273 -6.00150 40069 ft 530 kts 36°
2026-05-04 12:40 38.01307 -5.94928 40037 ft 526 kts 27°
2026-05-04 12:41 38.07497 -5.90005 40040 ft 527 kts 27°
2026-05-04 12:41 38.13668 -5.85021 40033 ft 526 kts 28°
2026-05-04 12:42 38.19842 -5.80063 40039 ft 526 kts 28°
2026-05-04 12:42 38.26003 -5.75084 40036 ft 526 kts 28°
2026-05-04 12:43 38.32168 -5.70103 40036 ft 526 kts 28°
2026-05-04 12:43 38.38329 -5.65110 40034 ft 526 kts 28°
2026-05-04 12:44 38.44490 -5.60108 40030 ft 526 kts 28°
2026-05-04 12:44 38.50643 -5.55102 40028 ft 525 kts 28°
2026-05-04 12:45 38.56783 -5.50096 40027 ft 525 kts 28°
2026-05-04 12:45 38.62924 -5.45095 40024 ft 524 kts 28°
2026-05-04 12:46 38.69084 -5.40145 40024 ft 524 kts 28°
2026-05-04 12:46 38.75230 -5.35151 40016 ft 524 kts 28°
2026-05-04 12:47 38.81381 -5.30168 40016 ft 524 kts 28°
2026-05-04 12:47 38.84449 -5.27674 39340 ft 527 kts 28°
2026-05-04 12:47 38.87541 -5.25155 38823 ft 525 kts 28°
2026-05-04 12:47 38.90604 -5.22656 38295 ft 521 kts 28°
2026-05-04 12:48 38.93641 -5.20181 37777 ft 516 kts 27°
2026-05-04 12:48 38.96645 -5.17720 37266 ft 512 kts 30°
2026-05-04 12:48 38.99401 -5.14839 36785 ft 513 kts 42°
2026-05-04 12:48 39.01711 -5.11347 36263 ft 514 kts 54°
2026-05-04 12:49 39.03623 -5.07484 35732 ft 512 kts 56°
2026-05-04 12:49 39.05491 -5.03624 35279 ft 508 kts 56°
2026-05-04 12:49 39.07332 -4.99780 34810 ft 504 kts 56°
2026-05-04 12:49 39.09160 -4.95958 34360 ft 500 kts 56°
2026-05-04 12:50 39.10982 -4.92171 33877 ft 497 kts 56°
2026-05-04 12:50 39.12787 -4.88415 33410 ft 492 kts 56°
2026-05-04 12:50 39.14575 -4.84676 32872 ft 489 kts 56°
2026-05-04 12:50 39.16348 -4.80963 32366 ft 486 kts 55°
2026-05-04 12:51 39.18340 -4.77516 31865 ft 476 kts 43°
2026-05-04 12:51 39.20759 -4.74690 31366 ft 466 kts 30°
2026-05-04 12:51 39.23480 -4.72559 30877 ft 453 kts 18°
2026-05-04 12:51 39.26349 -4.71000 30359 ft 447 kts 15°
2026-05-04 12:52 39.29210 -4.69493 29871 ft 443 kts 15°
2026-05-04 12:52 39.32047 -4.68018 29378 ft 438 kts 15°
2026-05-04 12:52 39.34852 -4.66559 28864 ft 434 kts 15°
2026-05-04 12:52 39.37633 -4.65101 28383 ft 430 kts 15°
2026-05-04 12:53 39.40385 -4.63654 27915 ft 425 kts 15°
2026-05-04 12:53 39.43105 -4.62228 27457 ft 421 kts 15°
2026-05-04 12:53 39.45796 -4.60818 26969 ft 416 kts 16°
2026-05-04 12:53 39.48448 -4.59423 26766 ft 405 kts 16°
2026-05-04 12:54 39.51013 -4.58068 26485 ft 397 kts 15°
2026-05-04 12:54 39.53565 -4.56732 25985 ft 396 kts 16°
2026-05-04 12:54 39.56107 -4.55399 25497 ft 394 kts 16°
2026-05-04 12:54 39.58637 -4.54063 25017 ft 392 kts 17°
2026-05-04 12:55 39.61149 -4.52735 24531 ft 390 kts 17°
2026-05-04 12:55 39.63650 -4.51416 24066 ft 387 kts 17°
2026-05-04 12:55 39.66128 -4.50108 23612 ft 384 kts 17°
2026-05-04 12:55 39.68588 -4.48807 23077 ft 381 kts 17°
2026-05-04 12:56 39.71032 -4.47513 22539 ft 378 kts 17°
2026-05-04 12:56 39.73452 -4.46232 22008 ft 375 kts 17°
2026-05-04 12:56 39.75852 -4.44960 21485 ft 372 kts 17°
2026-05-04 12:56 39.78231 -4.43699 20965 ft 368 kts 17°
2026-05-04 12:57 39.80588 -4.42447 20463 ft 365 kts 17°
2026-05-04 12:57 39.82929 -4.41204 19957 ft 362 kts 17°
2026-05-04 12:57 39.85246 -4.39973 19465 ft 359 kts 17°
2026-05-04 12:57 39.87544 -4.38751 18990 ft 356 kts 17°
2026-05-04 12:58 39.89823 -4.37537 18505 ft 353 kts 17°
2026-05-04 12:58 39.92085 -4.36332 18002 ft 351 kts 17°
2026-05-04 12:58 39.94328 -4.35137 17470 ft 348 kts 17°
2026-05-04 12:58 39.96555 -4.33966 16947 ft 343 kts 14°
2026-05-04 12:59 39.98833 -4.33349 16441 ft 331 kts
2026-05-04 12:59 40.01099 -4.32852 15930 ft 330 kts
2026-05-04 12:59 40.03332 -4.32332 15581 ft 322 kts
2026-05-04 12:59 40.05527 -4.31846 15073 ft 320 kts
2026-05-04 13:00 40.07708 -4.31378 14751 ft 314 kts
2026-05-04 13:00 40.09857 -4.30909 14555 ft 314 kts
2026-05-04 13:00 40.12017 -4.30433 14357 ft 316 kts
2026-05-04 13:00 40.14179 -4.29955 14152 ft 316 kts
2026-05-04 13:01 40.16341 -4.29479 13941 ft 315 kts
2026-05-04 13:01 40.18494 -4.29005 13738 ft 314 kts
2026-05-04 13:01 40.20643 -4.28531 13514 ft 313 kts
2026-05-04 13:01 40.22785 -4.28058 13300 ft 312 kts
2026-05-04 13:02 40.24918 -4.27586 13091 ft 311 kts
2026-05-04 13:02 40.27044 -4.27117 12886 ft 310 kts
2026-05-04 13:02 40.29160 -4.26648 12686 ft 308 kts
2026-05-04 13:02 40.31266 -4.26183 12497 ft 307 kts
2026-05-04 13:03 40.33366 -4.25718 12295 ft 307 kts
2026-05-04 13:03 40.35462 -4.25253 12100 ft 306 kts
2026-05-04 13:03 40.37549 -4.24951 11976 ft 298 kts 354°
2026-05-04 13:03 40.39614 -4.25074 11988 ft 299 kts 356°
2026-05-04 13:04 40.41702 -4.25094 11996 ft 301 kts 356°
2026-05-04 13:04 40.43796 -4.25133 11992 ft 302 kts 355°
2026-05-04 13:04 40.45891 -4.25205 12003 ft 302 kts 355°
2026-05-04 13:04 40.47988 -4.25275 12004 ft 302 kts 355°
2026-05-04 13:05 40.50082 -4.25335 12008 ft 302 kts 355°
2026-05-04 13:05 40.52174 -4.25394 12013 ft 302 kts 355°
2026-05-04 13:05 40.54273 -4.25457 12013 ft 302 kts 355°
2026-05-04 13:05 40.56368 -4.25520 12017 ft 301 kts 355°
2026-05-04 13:06 40.58432 -4.25580 12006 ft 289 kts 355°
2026-05-04 13:06 40.60374 -4.25633 11974 ft 273 kts 355°
2026-05-04 13:06 40.62246 -4.25691 11951 ft 267 kts 355°
2026-05-04 13:06 40.64093 -4.25749 11934 ft 266 kts 355°
2026-05-04 13:07 40.65937 -4.25803 11917 ft 266 kts 355°
2026-05-04 13:07 40.67780 -4.25860 11905 ft 265 kts 355°
2026-05-04 13:07 40.69628 -4.25914 11802 ft 268 kts 355°
2026-05-04 13:07 40.71485 -4.25962 11649 ft 266 kts 357°
2026-05-04 13:08 40.73276 -4.25388 11514 ft 270 kts 26°
2026-05-04 13:08 40.74710 -4.23811 11495 ft 274 kts 53°
2026-05-04 13:08 40.75781 -4.21718 11514 ft 277 kts 53°
2026-05-04 13:08 40.76905 -4.19658 11530 ft 278 kts 53°
2026-05-04 13:09 40.78014 -4.17583 11536 ft 277 kts 54°
2026-05-04 13:09 40.79109 -4.15496 11542 ft 277 kts 54°
2026-05-04 13:09 40.80203 -4.13410 11547 ft 276 kts 54°
2026-05-04 13:09 40.81301 -4.11330 11551 ft 277 kts 54°
2026-05-04 13:10 40.82400 -4.09248 11555 ft 277 kts 54°
2026-05-04 13:10 40.83496 -4.07166 11541 ft 277 kts 54°
2026-05-04 13:10 40.84591 -4.05081 11547 ft 277 kts 54°
2026-05-04 13:10 40.85687 -4.02997 11547 ft 276 kts 54°
2026-05-04 13:11 40.86784 -4.00910 11546 ft 277 kts 54°
2026-05-04 13:11 40.87880 -3.98823 11549 ft 277 kts 54°
2026-05-04 13:11 40.88977 -3.96730 11552 ft 277 kts 54°
2026-05-04 13:11 40.90073 -3.94640 11551 ft 278 kts 54°
2026-05-04 13:12 40.91168 -3.92551 11549 ft 277 kts 54°
2026-05-04 13:12 40.92259 -3.90466 11553 ft 276 kts 54°
2026-05-04 13:12 40.93349 -3.88384 11554 ft 276 kts 54°
2026-05-04 13:12 40.94443 -3.86292 11551 ft 278 kts 54°
2026-05-04 13:13 40.95544 -3.84184 11430 ft 281 kts 54°
2026-05-04 13:13 40.96646 -3.82072 11242 ft 277 kts 54°
2026-05-04 13:13 40.97612 -3.79899 11007 ft 276 kts 73°
2026-05-04 13:13 40.97794 -3.77407 10983 ft 272 kts 92°
2026-05-04 13:14 40.97697 -3.74896 10990 ft 274 kts 96°
2026-05-04 13:14 40.97525 -3.72378 10921 ft 277 kts 96°
2026-05-04 13:14 40.97380 -3.69851 10734 ft 275 kts 95°
2026-05-04 13:14 40.97254 -3.67329 10558 ft 274 kts 97°
2026-05-04 13:15 40.96780 -3.64897 10062 ft 278 kts 112°
2026-05-04 13:15 40.96131 -3.62461 9470 ft 283 kts 111°
2026-05-04 13:15 40.95363 -3.60110 9049 ft 275 kts 129°
2026-05-04 13:15 40.94010 -3.58469 8712 ft 257 kts 152°
2026-05-04 13:16 40.92388 -3.57751 8372 ft 240 kts 176°
2026-05-04 13:16 40.90769 -3.57700 8069 ft 229 kts 183°
2026-05-04 13:16 40.89206 -3.57688 7788 ft 221 kts 183°
2026-05-04 13:16 40.87703 -3.57681 7762 ft 214 kts 184°
2026-05-04 13:17 40.86239 -3.57675 7661 ft 206 kts 184°
2026-05-04 13:17 40.84821 -3.57667 7522 ft 201 kts 184°
2026-05-04 13:17 40.83434 -3.57656 7478 ft 199 kts 184°
2026-05-04 13:17 40.82058 -3.57647 7447 ft 198 kts 184°
2026-05-04 13:18 40.80671 -3.57638 7305 ft 201 kts 184°
2026-05-04 13:18 40.79315 -3.57627 7225 ft 194 kts 184°
2026-05-04 13:18 40.77938 -3.57625 6997 ft 199 kts 184°
2026-05-04 13:18 40.76561 -3.57615 6747 ft 197 kts 184°
2026-05-04 13:19 40.75209 -3.57605 6491 ft 191 kts 184°
2026-05-04 13:19 40.73940 -3.57591 6241 ft 173 kts 184°
2026-05-04 13:19 40.72781 -3.57588 6001 ft 160 kts 186°
2026-05-04 13:19 40.71688 -3.57585 5795 ft 157 kts 185°
2026-05-04 13:20 40.70592 -3.57580 5602 ft 159 kts 185°
2026-05-04 13:20 40.69487 -3.57572 5388 ft 158 kts 185°
2026-05-04 13:20 40.68394 -3.57566 5177 ft 157 kts 185°
2026-05-04 13:20 40.67303 -3.57560 4970 ft 155 kts 185°
2026-05-04 13:21 40.66214 -3.57553 4768 ft 158 kts 185°
2026-05-04 13:21 40.65127 -3.57548 4558 ft 154 kts 185°
2026-05-04 13:21 40.64072 -3.57543 4343 ft 153 kts 185°
2026-05-04 13:21 40.62999 -3.57537 4150 ft 157 kts 185°
2026-05-04 13:22 40.61923 -3.57529 3939 ft 154 kts 185°
2026-05-04 13:22 40.60876 -3.57525 3739 ft 150 kts 185°
2026-05-04 13:22 40.59822 -3.57522 3545 ft 153 kts 185°
2026-05-04 13:22 40.58753 -3.57518 3321 ft 152 kts 184°
2026-05-04 13:23 40.57697 -3.57512 3112 ft 150 kts 185°
2026-05-04 13:23 40.56671 -3.57505 2909 ft 151 kts 184°
2026-05-04 13:23 40.55606 -3.57499 2702 ft 154 kts 184°
2026-05-04 13:23 40.54556 -3.57492 2489 ft 144 kts 185°
2026-05-04 13:24 40.53560 -3.57496 2250 ft 147 kts 185°
2026-05-04 13:24 40.52563 -3.57468 2058 ft 141 kts 185°
2026-05-04 13:24 40.51658 -3.57451 2005 ft 113 kts 187°
2026-05-04 13:25 40.50776 -3.57472 2002 ft 23 kts 180°
2026-05-04 13:25 40.50674 -3.57473 2000 ft 6 kts 173°
2026-05-04 13:25 40.50651 -3.57470 2000 ft 9 kts 174°
2026-05-04 13:25 40.50547 -3.57462 1998 ft 20 kts 179°
2026-05-04 13:26 40.50407 -3.57483 1997 ft 20 kts 198°
2026-05-04 13:26 40.50274 -3.57567 1995 ft 23 kts 209°
2026-05-04 13:26 40.50144 -3.57661 1994 ft 20 kts 202°
2026-05-04 13:26 40.50009 -3.57687 1994 ft 19 kts 180°
2026-05-04 13:27 40.49877 -3.57687 1991 ft 18 kts 180°
2026-05-04 13:27 40.49757 -3.57703 1995 ft 15 kts 208°
2026-05-04 13:27 40.49737 -3.57742 1997 ft 0 kts 263°
2026-05-04 13:27 40.49737 -3.57746 1997 ft 1 kts 265°
2026-05-04 13:28 40.49737 -3.57769 1998 ft 4 kts 270°
2026-05-04 13:28 40.49737 -3.57822 2000 ft 8 kts 270°
2026-05-04 13:28 40.49736 -3.57915 2001 ft 12 kts 269°
2026-05-04 13:28 40.49734 -3.58018 2004 ft 9 kts 262°
2026-05-04 13:29 40.49717 -3.58045 2008 ft 2 kts 207°
2026-05-04 13:29 40.49688 -3.58056 2006 ft 6 kts 191°
2026-05-04 13:29 40.49629 -3.58058 2007 ft 11 kts 179°
2026-05-04 13:29 40.49542 -3.58057 2006 ft 14 kts 180°
2026-05-04 13:30 40.49432 -3.58057 2005 ft 17 kts 179°
2026-05-04 13:30 40.49310 -3.58055 2009 ft 18 kts 178°
2026-05-04 13:30 40.49179 -3.58054 2008 ft 19 kts 180°
2026-05-04 13:30 40.49041 -3.58055 2005 ft 20 kts 176°
2026-05-04 13:31 40.48897 -3.58051 2008 ft 20 kts 180°
2026-05-04 13:31 40.48778 -3.58049 2006 ft 16 kts 178°
2026-05-04 13:31 40.48660 -3.58051 2005 ft 18 kts 182°
2026-05-04 13:31 40.48543 -3.58012 2003 ft 19 kts 147°
2026-05-04 13:32 40.48412 -3.57901 1997 ft 25 kts 146°
2026-05-04 13:32 40.48365 -3.57775 1998 ft 12 kts 94°
2026-05-04 13:32 40.48325 -3.57705 2000 ft 10 kts 139°
2026-05-04 13:32 40.48271 -3.57649 2002 ft 10 kts 142°
2026-05-04 13:33 40.48212 -3.57589 2001 ft 11 kts 142°
2026-05-04 13:33 40.48149 -3.57525 2005 ft 12 kts 142°
2026-05-04 13:33 40.48081 -3.57455 2003 ft 13 kts 142°
2026-05-04 13:33 40.48007 -3.57379 2005 ft 14 kts 142°
2026-05-04 13:34 40.47927 -3.57298 2006 ft 15 kts 142°
2026-05-04 13:34 40.47832 -3.57204 2003 ft 19 kts 143°
2026-05-04 13:34 40.47719 -3.57089 2001 ft 21 kts 141°
2026-05-04 13:34 40.47606 -3.56972 2000 ft 22 kts 142°
2026-05-04 13:35 40.47492 -3.56855 1997 ft 21 kts 142°
2026-05-04 13:35 40.47238 -3.56595 1991 ft 24 kts 142°
2026-05-04 13:35 40.47113 -3.56489 1987 ft 21 kts 156°
2026-05-04 13:36 40.46971 -3.56449 1985 ft 20 kts 181°
2026-05-04 13:36 40.46843 -3.56463 1983 ft 15 kts 196°
2026-05-04 13:36 40.46801 -3.56544 1982 ft 10 kts 265°
2026-05-04 13:36 40.46802 -3.56620 1980 ft 7 kts 266°
2026-05-04 13:37 40.46800 -3.56640 1981 ft 1 kts 258°
2026-05-04 13:37 40.46790 -3.56669 1984 ft 7 kts 235°
2026-05-04 13:37 40.46742 -3.56696 1979 ft 10 kts 188°
2026-05-04 13:37 40.46660 -3.56705 1982 ft 13 kts 183°
2026-05-04 13:38 40.46564 -3.56712 1982 ft 14 kts 183°
2026-05-04 13:38 40.46462 -3.56719 1980 ft 15 kts 183°
2026-05-04 13:38 40.46360 -3.56745 1981 ft 15 kts 204°
2026-05-04 13:38 40.46267 -3.56805 1981 ft 14 kts 209°
2026-05-04 13:39 40.46251 -3.56822 1980 ft 3 kts 241°
2026-05-04 13:39 40.46251 -3.56840 1979 ft 0 kts 289°
2026-05-04 13:39 40.46262 -3.56860 1980 ft 5 kts 302°
2026-05-04 13:39 40.46276 -3.56891 1981 ft 2 kts 301°
2026-05-04 13:40 40.46282 -3.56903 1981 ft 1 kts 302°
2026-05-04 13:40 40.46284 -3.56908 1981 ft 0 kts 302°